GW4018 Weather Reports


time (UTC)temp
F
wind
direction
speed
knots
gust
knots
rain 1hr
in
rain 24hr
in
rain mn
in
humidity
%
barometer
mb
20260503013056 65 100 0.9 3.5 0.00 0.00 0.00 34 1014.8
20260503011551 65 112 0.9 6.1 0.00 0.00 0.00 34 1014.8
20260503010053 65 64 2.6 6.1 0.00 0.00 0.00 34 1015.1
20260503004552 66 44 0.0 2.6 0.00 0.00 0.00 33 1015.1
20260503003106 66 355 0.0 2.6 0.00 0.00 0.00 33 1015.2
20260503001549 67 323 0.9 3.5 0.00 0.00 0.00 33 1015.4
20260503000054 67 302 2.6 5.2 0.00 0.00 0.00 32 1015.5
20260502234554 66 138 3.5 7.8 0.00 0.00 0.00 33 1015.5
20260502233054 67 81 3.5 7.8 0.00 0.00 0.00 32 1015.8
20260502231605 67 114 1.7 6.1 0.00 0.00 0.00 33 1016.0
20260502230058 66 116 1.7 9.6 0.00 0.00 0.00 33 1016.2
20260502224555 66 88 0.9 5.2 0.00 0.00 0.00 34 1016.2
20260502223049 67 119 3.5 4.3 0.00 0.00 0.00 33 1016.4
20260502221559 66 37 2.6 7.8 0.00 0.00 0.00 34 1016.6
20260502214555 66 349 3.5 9.6 0.00 0.00 0.00 35 1017.1
20260502213053 66 50 0.9 6.1 0.00 0.00 0.00 36 1017.4
20260502211552 65 154 4.3 10.4 0.00 0.00 0.00 35 1017.4
20260502210104 67 47 4.3 11.3 0.00 0.00 0.00 36 1017.5
20260502204555 66 57 5.2 10.4 0.00 0.00 0.00 37 1017.7
20260502203058 64 59 6.1 10.4 0.00 0.00 0.00 37 1017.9
20260502201602 64 79 5.2 11.3 0.00 0.00 0.00 37 1018.0
20260502200117 64 55 4.3 10.4 0.00 0.00 0.00 35 1018.2
20260502194619 66 41 2.6 9.6 0.00 0.00 0.00 35 1018.2
20260502193101 67 65 5.2 11.3 0.00 0.00 0.00 33 1018.4
20260502191555 65 282 2.6 9.6 0.00 0.00 0.00 36 1018.5
20260502190106 64 106 4.3 12.2 0.00 0.00 0.00 38 1018.7
20260502184558 63 89 4.3 8.7 0.00 0.00 0.00 39 1018.8
20260502183054 64 67 6.1 14.8 0.00 0.00 0.00 39 1018.9
20260502181552 64 115 2.6 8.7 0.00 0.00 0.00 38 1019.1
20260502180116 64 59 2.6 11.3 0.00 0.00 0.00 39 1019.3
20260502163057 61 71 5.2 13.9 0.00 0.00 0.00 42 1019.5
20260502161559 61 73 6.1 12.2 0.00 0.00 0.00 42 1019.5
20260502151605 57 123 4.3 7.0 0.00 0.00 0.00 45 1019.7
20260502130104 48 93 1.7 5.2 0.00 0.00 0.00 55 1018.6
20260502123101 45 89 2.6 5.2 0.00 0.00 0.00 57 1018.1
20260502121603 45 57 2.6 6.1 0.00 0.00 0.00 57 1018.0
20260502114557 45 62 1.7 4.3 0.00 0.00 0.00 54 1017.6
20260502113057 46 11 0.9 3.5 0.00 0.00 0.00 52 1017.4
20260502111556 46 24 1.7 3.5 0.00 0.00 0.00 52 1017.0
20260502110100 47 360 1.7 4.3 0.00 0.00 0.00 52 1016.9
20260502104555 48 63 3.5 7.0 0.00 0.00 0.00 50 1017.0
20260502103103 49 342 5.2 9.6 0.00 0.00 0.00 49 1016.5
20260502101611 48 344 1.7 7.0 0.00 0.00 0.00 49 1016.3
20260502100105 48 331 1.7 6.1 0.00 0.00 0.00 49 1016.3
20260502080103 49 0 1.7 3.5 0.00 0.00 0.00 43 1015.3
20260502070054 49 276 3.5 6.1 0.00 0.00 0.00 42 1015.2
20260502064552 49 271 2.6 3.5 0.00 0.00 0.00 41 1015.2
20260502063057 49 284 0.9 3.5 0.00 0.00 0.00 40 1015.4
20260502061553 49 284 2.6 5.2 0.00 0.00 0.00 40 1015.3
20260502060107 50 284 2.6 5.2 0.00 0.00 0.00 40 1015.2
20260502054551 51 272 3.5 5.2 0.00 0.00 0.00 38 1015.0
20260502053101 54 315 1.7 3.5 0.00 0.00 0.00 34 1014.9
20260502051601 56 315 3.5 7.8 0.00 0.00 0.00 33 1014.8
20260502050059 54 286 4.3 6.1 0.00 0.00 0.00 34 1014.7
20260502044553 55 294 3.5 6.1 0.00 0.00 0.00 32 1014.6
20260502043054 56 282 3.5 6.1 0.00 0.00 0.00 31 1014.5
20260502041555 59 315 6.1 8.7 0.00 0.00 0.00 27 1014.4
20260502040057 59 298 3.5 7.0 0.00 0.00 0.00 27 1014.4
20260502034554 60 286 3.5 7.0 0.00 0.00 0.00 26 1014.4
20260502033056 59 292 3.5 4.3 0.00 0.00 0.00 27 1014.3
20260502031554 60 267 3.5 6.1 0.00 0.00 0.00 26 1014.2
20260502030056 60 277 3.5 5.2 0.00 0.00 0.00 26 1013.9
20260502024558 62 286 4.3 6.1 0.00 0.00 0.00 25 1013.8
20260502023057 64 275 3.5 5.2 0.00 0.00 0.00 24 1013.6
20260502021605 65 263 2.6 5.2 0.00 0.00 0.00 24 1013.6
20260502020056 68 306 1.7 4.3 0.00 0.00 0.00 22 1013.5
20260502014558 70 311 2.6 6.1 0.00 0.00 0.00 21 1013.6